Temperature
27 27 27 27 27 27 27 28 28 29 29 29 28 28 26 25 24 23 22 21 21 20 20 19 19 19 19 18 18 18 18 18 18 18 18 18 17 17 17 17 17 17 17 17
25 26 27 27 27 27 28 28 28 29 29 29 27 26 25 24 23 23 22 21 20 19 19 19 19 19 18 18 18 18 18 17 17 17 17 17 17 17 17 17 17 17 16 16
25 26 26 25 27 27 27 28 28 28 28 27 26 25 24 23 22 22 21 20 19 19 18 18 19 18 18 18 18 17 17 17 17 17 17 17 16 16 16 16 16 16 16 16
25 25 24 26 27 27 27 27 28 28 27 27 25 24 23 22 21 21 20 19 18 18 18 18 18 18 17 17 17 17 17 17 16 16 16 16 16 16 16 16 16 16 15 15
25 24 25 25 25 26 26 26 26 26 26 24 23 23 22 21 20 19 19 18 18 18 18 17 17 17 17 17 17 17 16 16 16 16 16 16 16 16 16 15 15 15 15 15
24 24 24 25 25 24 25 25 25 25 24 23 23 25 23 19 19 18 18 17 17 17 17 17 17 17 17 16 16 16 16 16 16 16 16 16 16 15 15 15 15 14 14 14
24 24 25 24 23 23 24 24 23 23 23 22 23 23 20 18 18 17 17 17 16 16 17 16 16 16 16 16 16 15 15 15 15 16 15 15 15 15 14 14 14 14 14 14
23 23 24 22 23 24 22 20 21 21 21 21 20 19 18 17 17 17 16 16 16 16 16 16 16 16 15 15 15 15 15 15 15 15 15 15 14 14 14 14 14 13 13 13
23 23 21 20 20 19 19 19 20 20 20 19 18 18 17 16 16 16 16 15 15 15 15 15 15 15 15 14 14 14 14 14 14 14 14 14 14 14 14 13 13 13 13 13
21 21 20 19 18 18 18 18 18 18 18 18 17 17 16 15 15 15 15 15 15 15 15 15 15 14 14 14 14 14 14 14 14 13 13 13 13 13 13 13 13 12 12 12
20 20 19 18 18 17 17 17 17 17 17 17 16 16 15 15 15 14 14 14 14 14 14 14 14 14 14 14 13 13 13 13 13 13 13 13 13 13 12 12 12 12 11 11
20 19 19 18 17 16 17 16 16 16 16 16 16 15 15 14 14 14 14 14 14 13 14 13 13 13 13 13 13 13 13 13 12 12 12 12 12 11 11 11 11 11 11 11
17 17 17 16 16 15 16 15 15 15 15 15 15 15 14 14 13 13 13 13 13 13 13 13 13 13 12 12 12 12 12 12 12 11 11 11 11 11 10 10 10 10 10 10
15 15 15 15 15 15 15 15 14 14 14 14 14 14 13 13 13 13 13 13 12 12 12 12 12 12 12 12 12 12 12 11 11 11 11 11 10 10 10 10 9 9 9 9
15 15 15 14 14 14 14 14 14 14 13 13 13 13 13 13 12 12 12 12 12 12 12 12 12 11 11 11 11 11 11 11 11 10 10 10 10 10 10 9 9 9 8 8
14 14 14 14 14 13 13 13 13 13 13 12 12 12 12 12 12 12 12 12 12 11 11 11 11 11 11 11 11 11 11 11 10 10 10 10 10 10 9 9 9 9 8 8
14 14 14 14 13 13 13 13 13 13 12 12 12 12 12 11 11 11 11 11 11 11 11 11 10 10 10 11 11 11 10 10 10 10 10 10 9 9 9 9 9 8 8 8
13 13 13 13 13 13 13 12 12 12 12 11 11 11 11 11 11 11 10 10 10 10 10 10 10 10 10 10 10 10 10 10 10 9 9 9 9 9 9 8 8 8 7 7
12 12 12 12 12 12 12 12 12 11 11 11 11 11 10 10 10 10 10 10 10 10 10 10 10 10 10 10 10 10 9 9 9 9 9 8 8 8 8 8 8 7 7 7
12 12 12 12 11 12 11 11 11 11 11 10 10 10 10 10 10 10 9 9 9 9 9 9 9 9 9 9 9 9 9 9 9 8 8 8 8 8 8 8 7 7 7 6
11 11 11 11 11 11 11 11 11 10 10 10 10 10 9 9 9 9 9 9 9 9 9 9 9 9 9 9 9 9 9 8 8 8 8 8 8 7 7 7 7 6 6 6
11 11 11 11 11 10 10 10 10 10 10 9 9 9 9 9 9 9 9 9 9 9 9 9 9 9 9 8 8 8 8 8 8 8 8 7 7 7 7 7 6 6 6 6
10 10 10 10 10 10 9 10 10 9 9 9 9 9 9 9 9 9 8 8 8 8 8 8 8 8 8 8 8 8 8 8 8 7 7 7 7 7 6 6 6 6 5 5
10 10 10 10 9 9 9 9 9 9 9 9 9 9 9 9 9 8 8 8 8 8 8 8 8 8 8 8 8 8 8 7 7 7 7 7 7 6 6 6 6 5 5 5
9 9 9 9 9 9 9 9 9 9 9 9 8 8 9 9 8 8 8 8 8 8 7 7 7 7 8 7 7 7 7 7 7 7 6 6 6 6 6 5 5 5 5 4
9 9 9 9 9 9 9 9 9 9 9 9 8 8 8 8 8 8 7 7 7 7 7 7 7 7 7 7 7 7 7 6 6 6 6 6 6 6 5 5 5 4 4 4
9 9 9 9 9 9 9 9 9 9 8 9 8 8 8 8 8 8 8 7 7 7 7 7 7 7 7 7 7 6 6 6 6 6 6 6 5 5 5 4 4 4 4 4
Wind_Speed
4 5 12 15 16 17 17 15 12 11 10 7 6 5 6 6 6 6 6 6 6 6 6 6 6 6 6 5 5 6 6 6 5 5 5 5 4 4 4 4 3 3 2 2
8 7 9 12 15 15 15 14 13 11 9 3 3 5 6 6 7 7 6 6 6 7 7 7 7 6 6 5 5 6 6 5 5 5 5 4 4 4 4 3 3 2 2 1
10 9 9 12 14 14 13 12 12 11 7 5 5 6 6 6 6 6 7 7 7 7 7 6 6 7 7 6 6 6 6 5 5 5 5 4 4 4 4 3 3 2 2 1
8 10 12 5 6 9 11 10 9 6 4 4 4 4 5 5 6 7 7 7 7 7 7 7 7 8 8 7 7 6 5 5 5 5 4 4 4 4 4 3 3 3 2 2
9 11 8 6 6 7 9 9 7 6 4 5 6 6 5 5 6 7 7 7 7 7 8 7 7 8 8 7 7 6 5 5 5 5 5 4 5 4 3 3 3 3 2 2
9 11 10 6 6 4 6 8 5 5 6 6 8 7 5 6 7 8 8 7 7 8 8 8 7 7 7 7 6 5 5 5 5 5 5 4 5 4 4 3 3 3 3 4
11 10 5 4 5 6 9 3 3 3 5 6 4 1 7 8 8 8 9 9 8 8 8 7 7 8 8 7 6 5 6 6 6 6 5 5 5 4 4 4 4 4 5 5
10 11 6 4 5 4 3 4 2 2 4 4 5 7 9 9 9 10 9 9 9 9 8 7 7 8 8 8 6 7 7 7 7 6 5 5 6 5 5 4 5 5 5 6
4 2 5 3 2 3 2 2 2 2 4 6 7 8 9 9 9 9 9 9 9 9 9 8 7 8 9 8 7 8 8 8 8 8 7 6 6 6 5 5 5 5 5 5
3 3 2 2 2 1 1 1 1 2 4 6 8 9 10 9 9 9 9 9 9 10 10 9 8 8 9 8 8 9 10 9 8 9 9 9 7 7 6 5 5 5 5 5
5 3 3 3 2 2 2 2 3 4 5 6 9 9 9 9 9 9 9 9 9 9 10 10 9 9 8 8 9 10 10 9 9 9 10 10 11 10 9 8 7 6 6 6
3 2 2 2 2 2 2 3 3 4 5 7 8 10 10 9 9 10 10 9 10 11 11 10 10 9 8 8 9 10 9 9 8 8 8 9 11 12 17 14 16 16 14 10
2 1 1 1 1 1 2 3 4 5 7 8 8 9 10 10 10 10 11 11 11 11 11 11 10 10 9 8 9 9 10 8 7 8 8 8 8 9 10 11 15 16 14 13
2 2 2 1 1 2 4 5 6 7 8 9 9 10 11 11 11 11 11 11 12 12 12 12 12 11 9 9 9 10 10 9 8 8 7 8 8 8 8 8 8 9 10 10
2 2 3 3 3 4 5 7 8 8 9 9 9 10 11 12 12 12 12 12 13 13 12 12 12 10 9 9 10 10 9 8 8 8 8 8 8 8 8 8 8 7 7 7
3 4 5 5 5 6 7 8 8 9 9 10 10 11 11 13 13 13 12 12 13 13 12 11 11 10 9 10 10 9 9 10 8 8 8 7 7 7 7 7 7 6 6 5
5 6 6 7 7 7 7 8 8 9 10 11 12 13 13 14 14 13 13 12 12 12 11 11 10 9 9 9 9 9 9 8 8 7 7 7 7 7 7 6 6 7 7 7
5 5 6 7 8 8 8 8 9 10 11 12 13 13 13 13 13 13 13 13 13 12 11 10 9 9 9 8 8 7 8 7 7 7 7 7 7 7 7 7 7 7 6 6
6 6 6 7 8 9 9 10 10 11 12 13 14 14 13 13 13 13 12 12 12 11 9 9 9 9 10 9 7 7 8 8 8 8 8 7 7 7 7 7 7 6 6 6
7 7 7 9 10 10 10 10 11 12 12 13 15 15 14 13 13 13 12 11 8 8 9 9 9 9 9 8 5 7 8 8 8 8 7 7 7 7 7 7 7 6 6 6
9 10 10 10 10 11 11 11 12 13 13 14 15 15 14 13 12 12 11 11 9 8 9 8 8 8 8 7 6 7 7 7 7 7 7 7 7 7 6 6 6 6 6 6
10 11 12 12 13 12 11 11 13 14 15 15 15 15 15 13 13 12 11 9 9 7 7 8 8 9 7 6 8 8 8 7 7 7 7 6 6 6 6 6 6 6 6 5
10 11 12 13 14 14 13 13 13 14 14 15 14 14 13 11 10 11 11 9 9 8 8 9 9 8 4 6 8 8 8 7 7 7 6 6 6 6 6 6 5 5 5 4
11 12 12 13 14 14 14 14 13 13 14 13 13 13 12 11 10 10 11 11 10 10 11 10 9 6 3 7 7 7 7 7 6 6 6 6 6 6 6 5 5 5 5 5
12 12 13 13 13 12 13 14 14 14 14 11 12 11 10 9 11 11 11 12 11 11 11 10 7 4 6 8 7 7 7 7 6 6 6 5 5 5 5 5 5 4 4 4
11 10 10 10 10 10 10 11 11 10 11 11 10 10 10 11 12 11 11 12 13 10 9 8 7 5 7 7 7 8 8 7 6 6 6 5 5 5 5 4 5 3 3 3
11 10 10 10 9 9 9 10 11 11 11 11 11 11 11 11 11 11 12 10 10 9 8 7 7 7 7 7 7 7 7 6 6 6 6 5 5 4 4 4 3 2 2 3
Wind_Direction
217 170 185 196 200 203 214 226 231 227 231 210 196 188 171 163 158 148 138 134 135 139 137 139 141 144 147 149 149 152 157 162 169 171 174 176 178 182 184 194 207 199 193 220
196 187 194 200 201 204 213 225 234 236 230 212 174 165 167 168 166 156 144 135 128 129 128 127 131 136 136 137 137 139 142 148 151 159 158 158 169 175 170 175 179 164 160 183
199 186 194 210 206 206 208 217 227 230 226 178 178 177 173 167 163 155 145 134 130 127 123 123 126 130 133 133 133 135 138 139 140 147 151 158 162 154 147 149 143 128 115 104
198 187 212 186 184 210 213 216 226 234 207 182 176 160 155 161 161 153 143 135 130 124 118 117 118 123 128 131 132 132 132 132 131 138 142 145 138 136 139 136 124 114 108 98
205 204 205 179 182 201 209 215 217 217 184 148 143 144 142 143 145 141 135 128 126 124 121 118 119 124 127 126 127 128 131 133 132 136 139 139 130 134 137 130 118 113 102 80
210 213 213 181 155 181 213 213 188 198 181 163 177 196 157 131 128 125 121 119 120 119 116 114 119 125 125 122 119 123 127 131 131 128 127 126 126 127 126 128 125 118 96 77
211 214 204 121 142 179 209 174 106 170 177 177 191 111 121 129 126 125 122 118 119 119 113 112 118 122 118 113 114 116 115 111 110 109 112 112 110 112 119 122 117 107 92 78
213 217 199 125 176 195 66 56 77 124 142 140 108 108 122 125 127 127 123 121 120 116 110 108 115 119 113 108 111 109 105 101 97 93 96 100 103 102 105 111 109 102 91 76
216 197 84 113 108 61 48 49 66 110 120 122 124 122 122 122 124 123 122 120 118 116 110 104 104 110 109 106 108 107 103 98 94 90 84 86 90 91 93 93 92 88 86 78
198 166 131 119 114 86 63 67 77 117 126 130 128 127 126 123 121 121 119 119 119 117 112 103 98 97 100 103 106 104 98 93 92 89 84 76 71 68 69 69 80 84 82 79
208 183 166 145 106 73 73 86 102 113 124 132 130 129 126 123 123 122 119 116 115 113 109 104 101 99 99 103 107 104 99 96 92 86 84 77 68 56 61 53 49 64 76 79
199 163 204 150 85 63 83 95 108 120 125 129 129 129 126 122 122 122 119 116 112 109 107 104 101 95 92 96 105 107 105 100 97 95 93 94 92 80 62 65 63 61 56 67
269 288 111 137 83 66 107 108 115 123 127 124 123 125 122 122 123 122 120 117 115 112 108 106 101 95 94 98 100 101 103 103 101 100 101 101 102 101 97 81 73 68 65 66
207 190 177 162 131 124 124 120 117 117 119 122 124 124 124 123 121 119 117 116 114 112 108 104 99 94 95 99 101 101 101 99 101 102 103 101 99 100 102 103 98 86 78 78
197 187 172 147 136 133 133 131 125 121 121 122 124 126 126 123 117 114 112 113 112 109 105 102 98 95 98 102 102 103 103 103 100 101 102 102 104 103 100 98 97 98 98 95
189 172 166 162 155 150 148 144 136 131 129 127 125 124 122 119 117 114 113 115 115 110 106 104 101 102 103 103 102 99 95 91 99 105 105 104 102 100 97 95 92 88 82 77
190 181 176 169 164 158 153 146 140 136 133 130 129 126 123 120 116 114 112 111 108 107 105 105 104 105 105 106 107 107 107 104 103 102 99 97 96 94 93 90 86 82 75 56
204 196 185 173 163 152 144 140 138 135 132 130 129 126 124 122 119 116 114 113 109 103 100 103 106 109 106 103 104 110 112 110 106 102 100 96 94 94 93 91 89 87 89 85
182 173 167 159 151 144 138 135 133 130 129 130 127 123 120 117 116 116 116 113 110 107 103 103 105 109 105 100 103 110 109 107 104 101 100 102 99 94 92 90 87 82 80 77
159 151 150 146 140 134 130 129 128 127 128 127 123 120 118 118 119 116 111 104 99 105 113 112 112 104 103 101 100 105 106 108 109 108 107 104 98 95 91 89 86 81 77 74
143 140 138 134 131 128 129 131 129 127 126 125 124 122 120 120 119 117 114 107 103 106 112 115 110 107 105 106 109 104 105 105 104 104 104 102 99 97 94 91 87 82 79 77
129 129 127 125 123 120 119 122 124 125 124 124 123 123 121 120 117 110 103 105 113 114 116 110 104 94 98 113 108 105 105 103 102 103 104 104 101 99 96 93 88 83 79 77
117 119 119 120 119 117 115 117 120 122 123 123 124 124 122 119 118 117 113 112 115 110 106 99 95 94 100 109 102 101 99 98 98 99 100 99 98 97 95 92 87 85 83 77
113 114 115 117 118 117 117 117 116 116 117 118 119 120 119 117 110 106 109 106 100 106 103 99 98 98 106 103 101 100 100 99 99 100 101 99 97 95 92 89 87 83 78 72
113 115 118 121 120 119 119 119 117 117 116 114 114 115 114 113 114 114 115 115 116 113 111 110 110 114 107 99 103 103 101 96 98 100 99 96 95 95 95 94 89 84 76 69
115 117 118 119 119 122 125 124 123 123 122 120 118 116 114 115 117 119 119 120 118 118 117 119 119 123 104 103 102 102 104 108 108 102 97 98 97 97 95 93 92 83 76 66
113 113 113 113 113 116 119 120 122 124 124 123 121 121 121 121 121 122 122 123 124 120 116 116 115 110 105 104 102 101 101 101 100 100 101 97 94 93 93 92 82 79 69 65
Height
1455 1454 1457 1463 1466 1467 1470 1468 1471 1470 1468 1467 1471 1476 1481 1484 1487 1490 1493 1495 1497 1498 1500 1502 1503 1505 1507 1510 1511 1513 1515 1517 1518 1520 1522 1524 1526 1527 1528 1529 1531 1531 1531 1532
1462 1459 1459 1462 1462 1464 1466 1466 1466 1465 1467 1466 1472 1477 1481 1484 1487 1490 1493 1495 1496 1498 1499 1501 1503 1505 1506 1508 1510 1512 1514 1515 1516 1517 1519 1522 1523 1525 1526 1527 1528 1529 1529 1529
1463 1460 1464 1469 1461 1462 1463 1463 1464 1467 1467 1469 1473 1477 1481 1484 1487 1490 1492 1495 1497 1498 1499 1501 1502 1504 1506 1508 1510 1511 1513 1515 1516 1517 1519 1521 1522 1523 1524 1525 1526 1527 1527 1528
1459 1467 1478 1461 1456 1457 1460 1462 1462 1463 1466 1470 1475 1479 1482 1485 1487 1490 1492 1495 1497 1498 1500 1501 1503 1504 1506 1508 1510 1511 1513 1514 1515 1517 1518 1520 1520 1522 1523 1524 1525 1525 1526 1526
1460 1466 1465 1462 1460 1461 1463 1464 1464 1466 1469 1473 1477 1479 1483 1485 1488 1490 1492 1495 1496 1498 1500 1501 1503 1505 1507 1509 1510 1511 1513 1514 1515 1516 1518 1519 1519 1520 1522 1523 1523 1524 1525 1525
1461 1466 1470 1460 1459 1463 1464 1467 1466 1468 1471 1474 1475 1474 1480 1486 1488 1490 1493 1495 1497 1499 1500 1502 1503 1505 1507 1509 1510 1512 1513 1514 1515 1516 1517 1518 1518 1519 1520 1521 1522 1523 1524 1524
1460 1462 1457 1458 1462 1465 1470 1468 1468 1469 1471 1474 1474 1475 1482 1485 1488 1491 1493 1495 1497 1499 1501 1502 1504 1506 1507 1509 1510 1512 1513 1514 1514 1515 1516 1517 1518 1519 1520 1521 1522 1523 1523 1523
1458 1462 1463 1461 1462 1463 1466 1470 1470 1471 1473 1476 1478 1479 1482 1485 1488 1491 1494 1496 1498 1500 1501 1503 1505 1507 1508 1509 1511 1512 1513 1514 1514 1515 1516 1517 1518 1519 1520 1521 1522 1522 1523 1523
1456 1460 1463 1464 1466 1469 1470 1471 1472 1473 1474 1476 1479 1481 1484 1486 1489 1491 1494 1496 1499 1500 1502 1504 1506 1507 1508 1509 1511 1512 1513 1514 1515 1515 1516 1517 1518 1519 1520 1521 1522 1522 1523 1523
1460 1462 1465 1467 1468 1470 1471 1472 1473 1474 1476 1477 1479 1482 1484 1487 1489 1492 1495 1497 1499 1501 1503 1504 1506 1508 1509 1510 1511 1513 1513 1514 1516 1516 1517 1518 1518 1519 1520 1521 1522 1523 1523 1524
1461 1464 1466 1468 1469 1471 1472 1472 1473 1475 1476 1478 1480 1482 1485 1487 1490 1493 1495 1498 1500 1502 1503 1505 1507 1509 1510 1511 1513 1514 1515 1516 1517 1518 1518 1518 1519 1520 1521 1522 1523 1524 1524 1525
1459 1464 1465 1468 1470 1471 1472 1472 1474 1475 1477 1479 1481 1483 1486 1488 1491 1493 1496 1499 1501 1503 1505 1506 1508 1509 1511 1512 1514 1515 1516 1518 1519 1520 1520 1521 1521 1522 1523 1524 1525 1525 1526 1526
1466 1466 1468 1469 1471 1471 1472 1473 1474 1476 1477 1479 1482 1484 1486 1489 1492 1495 1497 1500 1502 1504 1506 1508 1510 1511 1513 1514 1516 1517 1518 1519 1521 1522 1523 1524 1525 1525 1526 1528 1528 1528 1528 1528
1466 1467 1468 1470 1471 1472 1473 1474 1475 1476 1478 1480 1483 1485 1488 1490 1493 1496 1499 1501 1504 1506 1508 1510 1511 1513 1515 1516 1517 1518 1520 1521 1523 1524 1526 1527 1528 1529 1530 1530 1531 1531 1532 1532
1466 1467 1468 1469 1470 1472 1473 1474 1476 1478 1480 1482 1485 1487 1490 1492 1494 1497 1500 1503 1506 1508 1510 1512 1513 1515 1517 1518 1519 1521 1522 1524 1525 1527 1528 1529 1531 1532 1533 1533 1534 1535 1535 1535
1465 1466 1468 1469 1470 1472 1473 1475 1476 1479 1481 1483 1486 1489 1491 1494 1496 1499 1502 1505 1508 1510 1512 1514 1516 1518 1519 1521 1522 1523 1525 1526 1528 1529 1531 1532 1533 1534 1535 1536 1536 1537 1537 1537
1464 1465 1467 1468 1470 1472 1474 1476 1477 1480 1482 1485 1487 1490 1493 1496 1498 1501 1505 1508 1510 1512 1515 1516 1518 1520 1521 1523 1525 1526 1527 1529 1530 1532 1533 1534 1535 1536 1537 1538 1538 1538 1538 1538
1463 1464 1466 1467 1469 1471 1474 1476 1479 1481 1483 1486 1489 1492 1495 1498 1500 1503 1507 1510 1512 1515 1517 1519 1521 1522 1524 1525 1527 1528 1530 1531 1532 1534 1535 1536 1537 1538 1539 1539 1540 1540 1540 1540
1461 1463 1465 1467 1469 1471 1474 1477 1479 1482 1485 1488 1491 1494 1497 1500 1503 1506 1509 1512 1514 1517 1520 1522 1523 1525 1526 1527 1529 1530 1532 1533 1534 1536 1537 1538 1539 1540 1541 1541 1541 1542 1542 1542
1460 1462 1464 1467 1470 1472 1475 1478 1480 1484 1487 1490 1493 1496 1500 1503 1506 1509 1512 1515 1518 1520 1522 1524 1526 1527 1528 1530 1531 1533 1535 1536 1537 1538 1539 1540 1541 1542 1542 1543 1543 1543 1543 1543
1460 1462 1465 1467 1470 1473 1477 1480 1482 1486 1489 1493 1496 1499 1502 1506 1509 1512 1515 1518 1521 1523 1525 1527 1529 1530 1531 1532 1534 1536 1537 1538 1539 1540 1541 1542 1543 1544 1544 1544 1545 1545 1545 1545
1460 1463 1466 1469 1472 1475 1479 1482 1485 1489 1492 1496 1499 1502 1505 1509 1513 1515 1518 1521 1523 1525 1528 1530 1531 1532 1534 1536 1538 1539 1540 1541 1541 1542 1543 1544 1545 1545 1546 1546 1546 1547 1547 1546
1462 1465 1468 1472 1475 1478 1482 1485 1489 1492 1496 1499 1502 1506 1509 1512 1516 1518 1521 1524 1526 1528 1531 1532 1533 1535 1536 1539 1540 1541 1542 1543 1544 1544 1545 1546 1546 1547 1547 1548 1548 1548 1548 1548
1466 1469 1472 1475 1479 1482 1485 1490 1493 1496 1500 1503 1506 1510 1512 1515 1518 1521 1523 1526 1528 1531 1533 1534 1536 1538 1539 1542 1542 1543 1544 1545 1545 1546 1547 1547 1548 1548 1549 1549 1549 1549 1549 1549
1470 1473 1476 1479 1483 1486 1490 1493 1497 1501 1504 1507 1511 1514 1517 1519 1521 1524 1527 1529 1531 1534 1536 1538 1539 1540 1542 1544 1544 1545 1546 1546 1547 1547 1548 1549 1549 1550 1550 1550 1550 1550 1550 1550
1474 1477 1480 1483 1487 1490 1494 1497 1501 1504 1508 1511 1514 1517 1520 1522 1525 1527 1530 1533 1535 1537 1539 1541 1542 1543 1545 1546 1547 1547 1548 1548 1549 1550 1550 1550 1551 1551 1551 1551 1551 1551 1551 1550
1479 1482 1485 1488 1492 1495 1498 1501 1504 1508 1511 1514 1517 1521 1523 1526 1529 1531 1533 1536 1538 1540 1542 1543 1545 1546 1547 1548 1549 1549 1550 1551 1551 1551 1552 1552 1552 1552 1552 1552 1552 1552 1551 1550